Weather History for KLXT - September, 2012

Change the Weather History Date:

Thursday, September 13, 2012

  Actual Average (KMKC) Record (KMKC)
Temperature  
Mean Temperature 64 °F -  
Max Temperature 73 °F 79 °F 91 °F (2000)
Min Temperature 54 °F 59 °F 41 °F (2014)
Degree Days  
Heating Degree Days 2    
Growing Degree Days 14 (Base 50)    
Moisture  
Dew Point 52 °F    
Average Humidity 82    
Maximum Humidity 94    
Minimum Humidity 52    
Precipitation  
Precipitation 0.48 in - - ()
Sea Level Pressure  
Sea Level Pressure 30.28 in    
Wind  
Wind Speed 12 mph (NNE)    
Max Wind Speed 18 mph    
Max Gust Speed 26 mph    
Visibility 8 miles    
Events Rain    
Averages and records for this station are not official NWS values.
T = Trace of Precipitation, MM = Missing Value Source: NWS Daily Summary

Daily Weather History Graph

Daily Weather History Graph

Search for Another Location

Airport or City:

Trip Planner

Search our weather history database for the weather conditions in past years. The results will help you decide how hot, cold, wet, or windy it might be!

Date:

Astronomy

Sep. 13, 2012 Rise Set
Actual Time 6:57 AM CDT 7:28 PM CDT
Civil Twilight 6:30 AM CDT 7:54 PM CDT
Nautical Twilight 5:59 AM CDT 8:26 PM CDT
Astronomical Twilight 5:26 AM CDT 8:58 PM CDT
Moon 4:18 AM CDT (9/13) 5:50 PM CDT (9/13)
Length of Visible Light 13h 24m
Length of Day
12h 30m
Waning Crescent, 7% of the Moon is Illuminated
Sep 13
Waning Crescent
Sep 15
New
Sep 22
First Quarter
Sep 29
Full
Oct 8
Last Quarter

Hourly Weather History & Observations

Time (CDT) Temp. Dew Point Humidity Pressure Visibility Wind Dir Wind Speed Gust Speed Precip Events Conditions
12:53 AM 73.0 °F 57.0 °F 57% 30.07 in 10.0 mi South 4.6 mph - N/A   Overcast
1:53 AM 71.1 °F 57.0 °F 61% 30.10 in 10.0 mi NW 8.1 mph - N/A   Scattered Clouds
2:53 AM 64.0 °F 46.0 °F 52% 30.11 in 10.0 mi NNE 11.5 mph - N/A   Partly Cloudy
3:53 AM 62.1 °F 44.1 °F 52% 30.13 in 10.0 mi NNE 12.7 mph - N/A   Mostly Cloudy
4:53 AM 61.0 °F 45.0 °F 56% 30.14 in 10.0 mi NNE 9.2 mph - N/A   Mostly Cloudy
5:53 AM 62.1 °F 46.0 °F 56% 30.17 in 10.0 mi NNE 13.8 mph - N/A   Overcast
6:53 AM 59.0 °F 52.0 °F 78% 30.20 in 10.0 mi NNE 10.4 mph - 0.01 in   Overcast
7:53 AM 59.0 °F 54.0 °F 83% 30.23 in 10.0 mi NNE 11.5 mph 23.0 mph 0.04 in   Overcast
8:10 AM 59.0 °F 53.6 °F 82% 30.24 in 10.0 mi NNE 13.8 mph 24.2 mph N/A   Overcast
8:36 AM 59.0 °F 53.6 °F 82% 30.25 in 10.0 mi North 17.3 mph 24.2 mph 0.00 in Rain Light Rain
8:53 AM 57.9 °F 54.0 °F 87% 30.24 in 10.0 mi North 18.4 mph - 0.00 in   Overcast
9:53 AM 55.9 °F 51.1 °F 84% 30.28 in 10.0 mi NNE 13.8 mph 24.2 mph N/A   Overcast
10:53 AM 57.0 °F 50.0 °F 77% 30.29 in 10.0 mi NNE 17.3 mph 26.5 mph N/A   Overcast
11:45 AM 57.2 °F 50.0 °F 77% 30.31 in 10.0 mi NE 13.8 mph 21.9 mph N/A   Overcast
11:53 AM 57.0 °F 50.0 °F 77% 30.30 in 10.0 mi NE 16.1 mph 21.9 mph N/A   Overcast
12:53 PM 57.0 °F 50.0 °F 77% 30.31 in 10.0 mi North 15.0 mph - N/A   Overcast
1:27 PM 57.2 °F 50.0 °F 77% 30.31 in 10.0 mi NE 17.3 mph - N/A   Overcast
1:53 PM 57.0 °F 50.0 °F 77% 30.30 in 10.0 mi NNE 15.0 mph - N/A   Overcast
2:53 PM 55.9 °F 52.0 °F 87% 30.29 in 7.0 mi NE 16.1 mph 21.9 mph 0.01 in Rain Light Rain
3:01 PM 55.4 °F 51.8 °F 88% 30.30 in 4.0 mi NNE 16.1 mph 23.0 mph 0.01 in Rain Light Rain
3:33 PM 55.4 °F 53.6 °F 94% 30.29 in 2.0 mi NE 12.7 mph - 0.10 in Rain Rain
3:43 PM 55.4 °F 53.6 °F 94% 30.30 in 3.0 mi NE 11.5 mph - 0.12 in Rain Rain
3:53 PM 55.0 °F 53.1 °F 93% 30.31 in 5.0 mi North 9.2 mph - 0.13 in Rain Rain
4:11 PM 55.4 °F 53.6 °F 94% 30.31 in 2.5 mi NNE 12.7 mph - 0.08 in Rain Heavy Rain
4:20 PM 55.4 °F 53.6 °F 94% 30.31 in 3.0 mi NNE 13.8 mph - 0.10 in Rain Rain
4:53 PM 55.9 °F 53.1 °F 90% 30.32 in 5.0 mi NNE 13.8 mph 21.9 mph 0.15 in Rain Light Rain
5:30 PM 55.4 °F 51.8 °F 88% 30.34 in 5.0 mi NNE 16.1 mph - 0.04 in Rain Light Rain
5:41 PM 55.4 °F 51.8 °F 88% 30.34 in 7.0 mi NNE 17.3 mph - 0.05 in Rain Light Rain
5:53 PM 54.0 °F 52.0 °F 93% 30.35 in 5.0 mi NNE 12.7 mph - 0.07 in Rain Light Rain
6:24 PM 55.4 °F 51.8 °F 88% 30.36 in 7.0 mi NNE 10.4 mph - 0.01 in Rain Light Rain
6:39 PM 55.4 °F 53.6 °F 94% 30.36 in 5.0 mi NE 10.4 mph - 0.04 in Rain Rain
6:49 PM 55.4 °F 53.6 °F 94% 30.37 in 6.0 mi NNE 10.4 mph - 0.04 in Rain Light Rain
7:53 PM 55.0 °F 53.1 °F 93% 30.34 in 10.0 mi NE 13.8 mph - 0.04 in   Overcast
8:53 PM 55.0 °F 51.1 °F 86% 30.35 in 10.0 mi NE 16.1 mph 21.9 mph N/A   Overcast
9:53 PM 55.0 °F 52.0 °F 89% 30.36 in 10.0 mi NE 8.1 mph - N/A   Overcast
10:53 PM 55.0 °F 52.0 °F 89% 30.38 in 10.0 mi NE 6.9 mph - 0.01 in Rain Light Rain
11:53 PM 55.0 °F 52.0 °F 89% 30.39 in 10.0 mi NNE 5.8 mph - 0.02 in Rain Light Rain